COSMOS 1989 (ETALON 1)

Last updated on Wed Aug 19 2026 00:03:36 GMT+0000 (Coordinated Universal Time)

1 19751U 89001C 26228.28055223 -.00000022 00000+0 00000+0 0 9991 2 19751 64.9828 70.1414 0023359 217.3980 140.7150 2.13156052292647
UTC large
Height (km)
Speed (km/s)
/
Latitude / Longitude
Inclination (degrees)
Orbital Period (minutes)
Azimuth
Elevation
Range (km)
Doppler Factor

Next 0 passes for location: London (51.5072 / 0.1276)

No passes found over London.
COSMOS 1989 (ETALON 1)